Regional Weather Roundup
Issued by NWS

Home | Current Version | Previous Version | Text Only | Print | Product List | Glossary On
Versions: 1 2 3 4 5 6 7 8 9 10 11 12 13 14 15 16 17 18 19 20 21 22 23 24 25 26 27 28 29 30 31 32 33 34 35 36 37 38 39 40 41 42 43 44 45 46 47 48 49 50
000
ASUS43 KDMX 260806
RWRIA

WEATHER ROUNDUP FOR IOWA
NATIONAL WEATHER SERVICE DES MOINES IA
300 AM CDT FRI MAY 26 2017

NOTE: "FAIR" INDICATES FEW OR NO CLOUDS BELOW 12,000 FEET WITH NO
SIGNIFICANT WEATHER AND/OR OBSTRUCTIONS TO VISIBILITY.

* - THESE STATIONS ARE NOT NWS STATIONS...THUS NOT UNDER NWS
QUALITY CONTROL.  THEY ALSO DO NOT REPORT WEATHER SUCH
AS PRECIPITATION OR FOG.

IAZ001>003-012>014-020>022-031>034-043>046-260900-
   NORTHWEST IOWA

CITY           SKY/WX    TMP DP  RH WIND       PRES   REMARKS
CARROLL *      CLOUDY    59  55  88 SE6       29.68S
CHEROKEE *     CLOUDY    59  55  84 S3        29.67S
DENISON *      CLOUDY    64  54  68 S10G17    29.68S
LE MARS *      PTCLDY    61  54  77 S3        29.66S
ORANGE CITY *  PTCLDY    59  54  82 CALM      29.67S
SHELDON *      CLOUDY    59  52  77 S12       29.65S
SIOUX CITY     MOCLDY    59  56  89 E5        29.65S
SPENCER        CLOUDY    60  53  77 S8        29.68S
STORM LAKE *   CLOUDY    61  54  77 SE8       29.68F
$$

IAZ055>058-069>071-079>083-090>094-260900-
   SOUTHWEST IOWA

CITY           SKY/WX    TMP DP  RH WIND       PRES   REMARKS
ATLANTIC *     CLOUDY    63  54  72 S5        29.67F
AUDUBON *      CLOUDY    57  54  88 CALM      29.69S
CLARINDA *     CLOUDY    64  55  72 CALM      29.67F
COUNCIL BLFS * CLOUDY    64  57  77 SE8       29.64F
CRESTON *      CLOUDY    61  54  77 SE8       29.69F
HARLAN  *      CLOUDY    63  55  77 CALM      29.70F
LAMONI         CLOUDY    61  53  75 VRB5      29.68F
RED OAK *      CLOUDY    64  55  72 CALM      29.65F
SHENANDOAH *   CLOUDY    66  55  68 E5        29.63F
$$

IAZ047>049-059>061-072>074-084-260900-
   CENTRAL IOWA

CITY           SKY/WX    TMP DP  RH WIND       PRES   REMARKS
AMES           CLEAR     56  52  86 SE5       29.70F
ANKENY *       CLOUDY    57  52  82 CALM      29.71S
BOONE *        CLOUDY    59  55  88 SE8       29.70S
CHARITON *     PTCLDY    61  52  72 S9        29.69F
DES MOINES     MOCLDY    62  52  69 E7        29.69F
GRINNELL*      MOCLDY    58  51  79 E6        29.74S
KNOXVILLE *    CLOUDY    61  52  72 E6        29.69F
MARSHALLTOWN   MOCLDY    56  52  86 E8        29.71F
NEWTON *       CLOUDY    57  52  82 E8        29.71F
PERRY *        MOCLDY    59  54  84 E7        29.69S
$$

IAZ004>006-015-016-023>025-035-036-260900-
   NORTH CENTRAL IOWA

CITY           SKY/WX    TMP DP  RH WIND       PRES   REMARKS
ALGONA *       CLOUDY    61  52  72 S12       29.70S
CLARION *      CLEAR     59  52  77 SE12      29.70F
ESTHERVILLE    CLOUDY    57  53  86 S8        29.68S
FORT DODGE *   PTCLDY    57  50  77 SE6       29.71S
MASON CITY     CLEAR     54  48  80 SE7       29.73F
FOREST CITY *    N/A     55  45  67 SE6       29.71F
WEBSTER CITY * CLEAR     55  52  88 SE9       29.69S
$$

IAZ007>011-017>019-026>030-037>042-050>054-066-260900-
   NORTHEAST IOWA

CITY           SKY/WX    TMP DP  RH WIND       PRES   REMARKS
CEDAR RAPIDS   CLOUDY    56  54  93 E7        29.75S
CHARLES CITY * PTCLDY    57  54  88 SE9       29.74F
CLINTON *      PTCLDY    57  55  93 CALM      29.79S
DUBUQUE        CLOUDY    57  53  86 SW5       29.79R
MONTICELLO *   MOCLDY    57  55  94 CALM      29.78R
OELWEIN *      PTCLDY    55  55 100 SE8       29.77S
WATERLOO       CLEAR     54  50  86 SE7       29.74F
$$

IAZ064-065-067-068-078-260900-
   EAST CENTRAL IOWA

CITY           SKY/WX    TMP DP  RH WIND       PRES   REMARKS
DAVENPORT      CLOUDY    59  55  87 SE7       29.79R
IOWA CITY      CLOUDY    59  54  83 NE5       29.77R
MT. PLEASANT * CLOUDY    58  53  82 SE8       29.74F
MUSCATINE *    CLOUDY    59  54  82 NE3       29.77R
QUAD CITIES    CLOUDY    61  55  81 SE6       29.77R
$$

IAZ062-063-075>077-085>089-095>099-260900-
   SOUTHEAST IOWA

CITY           SKY/WX    TMP DP  RH WIND       PRES   REMARKS
BURLINGTON     CLOUDY    61  54  77 SE6       29.75S
FAIRFIELD *    CLOUDY    61  52  72 SE9       29.72F
FORT MADISON * PTCLDY    63  54  72 SE8       29.75F
KEOKUK *       CLOUDY    59  54  82 E6        29.74S
OSKALOOSA *      N/A     59  52  77 E8        29.72F
CENTERVILLE *    N/A     59  54  82 CALM      29.71F
OTTUMWA        CLOUDY    63  52  67 SE9       29.71S
WASHINGTON *   MOCLDY    59  55  88 NE8       29.76R
$$

ABBREVIATIONS USED IN REMARKS
   TC - TEMPERATURES IN CELSIUS
  WCI - WIND CHILL INDEX
   HX - HEAT INDEX
  VSB - VISIBILITY
$$





USA.gov is the U.S. government's official web portal to all federal, state and local government web resources and services.